Nantucket, MA

7:23 PM EDT on July 24, 2017 (GMT -0400)
Nantucket Memorial

Weather History for KACK - April, 2012

Change the Weather History Date:

Thursday, April 5, 2012

  Actual Average Record
Temperature  
Mean Temperature 42 °F -  
Max Temperature 48 °F 49 °F 60 °F (1978)
Min Temperature 37 °F 36 °F 24 °F (1982)
Degree Days  
Heating Degree Days 22    
Moisture  
Dew Point 31 °F    
Average Humidity 63    
Maximum Humidity 89    
Minimum Humidity 44    
Precipitation  
Precipitation 0.00 in - - ()
Sea Level Pressure  
Sea Level Pressure 29.76 in    
Wind  
Wind Speed 14 mph (NNW)    
Max Wind Speed 18 mph    
Max Gust Speed 26 mph    
Visibility 10 miles    
Events      
Averages and records for this station are not official NWS values.
T = Trace of Precipitation, MM = Missing Value Source: NWS Daily Summary

Daily Weather History Graph

Daily Weather History Graph

Search for Another Location

Airport or City:

Trip Planner

Search our weather history database for the weather conditions in past years. The results will help you decide how hot, cold, wet, or windy it might be!

Date:

Astronomy

Apr. 05, 2012 Rise Set
Actual Time 6:16 AM EDT 7:10 PM EDT
Civil Twilight 5:48 AM EDT 7:38 PM EDT
Nautical Twilight 5:14 AM EDT 8:11 PM EDT
Astronomical Twilight 4:40 AM EDT 8:46 PM EDT
Moon 6:11 PM EDT (4/5) 5:11 AM EDT (4/5)
Length of Visible Light 13h 50m
Length of Day
12h 54m
Waxing Gibbous, 98% of the Moon is Illuminated
Apr 5
Waxing Gibbous
Apr 6
Full
Apr 13
Last Quarter
Apr 21
New
Apr 29
First Quarter

Hourly Weather History & Observations

Time (EDT) Temp. Windchill Dew Point Humidity Pressure Visibility Wind Dir Wind Speed Gust Speed Precip Events Conditions
12:53 AM 45.0 °F 37.4 °F 36.0 °F 71% 29.60 in 10.0 mi NNW 18.4 mph - N/A   Clear
1:53 AM 44.1 °F 36.5 °F 36.0 °F 73% 29.63 in 10.0 mi NW 17.3 mph 24.2 mph N/A   Clear
2:53 AM 43.0 °F 35.7 °F 34.0 °F 71% 29.65 in 10.0 mi NNW 15.0 mph 21.9 mph N/A   Clear
3:53 AM 43.0 °F 35.7 °F 33.1 °F 68% 29.65 in 10.0 mi NNW 15.0 mph - N/A   Clear
4:53 AM 42.1 °F 34.9 °F 32.0 °F 67% 29.67 in 10.0 mi NNW 13.8 mph - N/A   Clear
5:53 AM 42.1 °F 35.2 °F 32.0 °F 67% 29.69 in 10.0 mi NNW 12.7 mph - N/A   Clear
6:53 AM 43.0 °F 34.8 °F 30.9 °F 62% 29.70 in 10.0 mi NNW 18.4 mph 23.0 mph N/A   Clear
7:53 AM 44.1 °F 37.1 °F 28.9 °F 55% 29.73 in 10.0 mi NNW 15.0 mph 21.9 mph N/A   Clear
8:53 AM 45.0 °F 37.4 °F 28.9 °F 53% 29.74 in 10.0 mi NNW 18.4 mph 24.2 mph N/A   Clear
9:53 AM 46.9 °F - 26.1 °F 44% 29.76 in 10.0 mi NNW 18.4 mph 24.2 mph N/A   Clear
10:53 AM 46.9 °F - 26.1 °F 44% 29.78 in 10.0 mi NNW 18.4 mph 26.5 mph N/A   Clear
11:53 AM 46.9 °F - 27.0 °F 46% 29.78 in 10.0 mi North 15.0 mph - N/A   Clear
12:53 PM 48.0 °F - 28.0 °F 46% 29.78 in 10.0 mi North 12.7 mph 19.6 mph N/A   Clear
1:53 PM 46.0 °F 41.9 °F 26.1 °F 46% 29.79 in 10.0 mi North 8.1 mph - N/A   Mostly Cloudy
2:53 PM 46.0 °F 41.4 °F 27.0 °F 47% 29.80 in 10.0 mi North 9.2 mph - N/A   Overcast
3:53 PM 46.0 °F 41.9 °F 30.0 °F 54% 29.79 in 10.0 mi SSW 8.1 mph - N/A   Overcast
4:53 PM 46.0 °F 41.9 °F 30.9 °F 56% 29.80 in 10.0 mi SSW 8.1 mph - N/A   Scattered Clouds
5:53 PM 45.0 °F 41.8 °F 32.0 °F 60% 29.81 in 10.0 mi South 5.8 mph - N/A   Mostly Cloudy
6:53 PM 42.1 °F 38.4 °F 33.1 °F 70% 29.82 in 10.0 mi ESE 5.8 mph - N/A   Partly Cloudy
7:53 PM 42.1 °F 39.2 °F 34.0 °F 73% 29.84 in 10.0 mi ESE 4.6 mph - N/A   Clear
8:53 PM 39.0 °F 35.7 °F 34.0 °F 82% 29.85 in 10.0 mi SSE 4.6 mph - N/A   Mostly Cloudy
9:53 PM 37.9 °F - 34.0 °F 86% 29.86 in 10.0 mi Calm Calm - N/A   Overcast
10:53 PM 37.9 °F 35.5 °F 35.1 °F 89% 29.86 in 10.0 mi NE 3.5 mph - N/A   Overcast
11:53 PM 43.0 °F 36.0 °F 36.0 °F 76% 29.88 in 10.0 mi North 13.8 mph - N/A   Overcast